Location: Great Malvern
(52.1167°N, 2.3167°W)
Time: 06:58:22
(UTC+00:00)

MOS 1 Rocket - Pass Details

Date: 18 September 2020
Orbit: 613 x 831 km, 97.4° (Epoch: 19 October)

Event Time Altitude Azimuth Distance (km) Brightness Sun altitude
Rises 18:56:16 0° 17° (NNE) 3,050 6.6 -6.9°
Reaches altitude 10° 18:58:40 10° 25° (NNE) 2,098 5.7 -7.3°
Maximum altitude 19:03:00 43° 96° (E) 912 3.5 -8.0°
Drops below altitude 10° 19:07:08 10° 169° (S) 1,996 5.4 -8.6°
Sets 19:09:21 0° 176° (S) 2,883 6.3 -8.9°
